Home   Weather   Cartagena   Past weeks

Flag for Colombia Past Weather in Cartagena, Colombia — Yesterday and Last 2 Weeks

Now
84 °F

Passing clouds.


Feels Like: 96 °F
Forecast: 80 / 92 °F
Wind: 9 mph from Northeast

Location: Cartagena / Rafael Nunez

Current Time: Jul 22, 2017 at 10:00:02 pm

Latest Report: Jul 22, 2017 at 9:00 pm


Visibility: N/A

Pressure: 29.83 "Hg

Humidity: 84%

Dew Point: 79 °F

Location of CartagenaLocation

Past Weather in Cartagena — Graph

°F

Cartagena Temperature Yesterday

Maximum temperature yesterday: 91 °F (at 2:00 pm)
Minimum temperature yesterday: 77 °F (at 12:00 am)
Average temperature yesterday: 83 °F

High & Low Weather Summary for the Past Weeks

 TemperatureHumidityPressure
High93 °F (Jul 10, 2:00 pm)100% (Jul 8, 4:20 pm)29.94 "Hg (Jul 8, 4:20 pm)
Low73 °F (Jul 20, 12:28 pm)59% (Jul 13, 11:00 am)29.73 "Hg (Jul 9, 5:00 pm)
Average83 °F84%29.84 "Hg
* Reported Jul 7 8:00 pm — Jul 22 8:00 pm, Cartagena. Weather by CustomWeather, © 2017

Note: Actual official high and low records may vary slightly from our data, if they occured in-between our weather recording intervals... More about our weather records

Advertising

Cartagena Weather History for the Previous 24 Hours

Scroll right to see more
 ConditionsComfort  
Time TempWeatherWind HumidityBarometerVisibility
8:00 pm
Sat, Jul 22
84 °FWarm.N/A84%29.83 "HgN/A
7:00 pm84 °FPassing clouds.8 mph84%29.81 "HgN/A
6:00 pm86 °FPassing clouds.12 mph79%29.77 "HgN/A
5:00 pm88 °FPassing clouds.13 mph75%29.75 "HgN/A
4:00 pm90 °FPassing clouds.14 mph75%29.75 "HgN/A
3:00 pm91 °FPassing clouds.9 mph67%29.77 "HgN/A
2:00 pm91 °FPassing clouds.9 mph71%29.79 "HgN/A
1:00 pm90 °FPassing clouds.9 mph71%29.82 "HgN/A
12:00 pm91 °FPassing clouds.8 mph67%29.84 "HgN/A
11:00 am90 °FPassing clouds.N/A71%29.85 "HgN/A
10:00 am90 °FPassing clouds.3 mph71%29.85 "HgN/A
9:00 am86 °FPassing clouds.2 mphN/AN/AN/A
8:00 am84 °FScattered clouds.2 mph79%29.85 "HgN/A
7:00 am81 °FScattered clouds.3 mph94%29.83 "HgN/A
6:00 am79 °FPassing clouds.2 mph94%29.81 "HgN/A
5:00 am79 °FClear.3 mph94%29.80 "Hg10 mi
4:00 am79 °FPassing clouds.3 mph94%29.80 "HgN/A
3:00 am81 °FPassing clouds.5 mph89%29.81 "HgN/A
2:00 am81 °FPassing clouds.6 mph89%29.82 "HgN/A
1:00 am81 °FPassing clouds.6 mph89%29.84 "HgN/A
11:00 pm
Fri, Jul 21
82 °FPassing clouds.7 mph84%29.88 "HgN/A
10:00 pm82 °FPassing clouds.7 mph84%29.88 "HgN/A
Weather by CustomWeather, © 2017

See weather overviewHow to use our weather pages